Location: Newark
(59.4564°N, 26.6917°E)
Time: 07:48:51
(UTC+00:00)

Vanguard 3 - All Passes

Search period start: 20 November 2019 00:00
Search period end: 30 November 2019 00:00
Orbit: 508 x 3263 km, 33.4° (Epoch: 19 November)

Date Brightness Start Highest point End Pass type
(mag) Time Alt. Az. Time Alt. Az. Time Alt. Az.
20 Nov - 11:20:33 10° SSW 11:33:02 21° SSE 11:44:34 10° ESE daylight
20 Nov - 13:31:02 10° SW 13:45:14 26° S 13:56:58 10° SE daylight
20 Nov - 15:45:22 10° WSW 15:56:54 21° SSW 16:06:03 10° SSE visible
21 Nov - 10:08:21 10° S 10:18:22 17° SE 10:28:13 10° ESE daylight
21 Nov - 12:16:08 10° SW 12:30:17 26° S 12:42:51 10° ESE daylight
21 Nov - 14:28:44 10° WSW 14:42:29 25° SSW 14:53:37 10° SSE visible
21 Nov - 16:45:23 10° WSW 16:53:26 15° SW 17:00:14 10° S visible
22 Nov - 08:59:59 10° SSE 09:04:06 11° SE 09:08:15 10° ESE daylight
22 Nov - 11:02:19 10° SSW 11:15:20 23° SSE 11:27:50 10° ESE daylight
22 Nov - 13:13:00 10° SW 13:27:38 27° S 13:40:14 10° SE daylight
22 Nov - 15:27:25 10° WSW 15:39:26 21° SSW 15:49:16 10° SSE visible
23 Nov - 09:49:54 10° S 10:00:37 18° SSE 10:11:32 10° ESE daylight
23 Nov - 11:58:11 10° SW 12:12:36 27° S 12:25:59 10° ESE daylight
23 Nov - 14:10:50 10° WSW 14:24:54 26° SSW 14:36:46 10° SSE visible
23 Nov - 16:27:40 10° WSW 16:35:58 15° SW 16:43:07 10° SSW visible
24 Nov - 08:40:13 10° SSE 08:46:20 12° SE 08:52:42 10° ESE daylight
24 Nov - 10:44:22 10° SSW 10:57:35 24° SSE 11:10:50 10° ESE daylight
24 Nov - 12:55:12 10° SW 13:09:58 28° S 13:23:17 10° SE daylight
24 Nov - 15:09:38 10° WSW 15:21:52 21° SSW 15:32:15 10° SSE visible
25 Nov - 09:31:51 10° S 09:42:51 20° SSE 09:54:32 10° ESE daylight
25 Nov - 11:40:28 10° SW 11:54:51 28° S 12:08:54 10° SE daylight
25 Nov - 13:53:06 10° WSW 14:07:14 26° SSW 14:19:43 10° SSE visible
25 Nov - 16:10:11 10° WSW 16:18:22 15° SW 16:25:40 10° SSW visible
26 Nov - 08:21:32 10° SSE 08:28:35 14° SE 08:36:08 10° ESE daylight
26 Nov - 10:26:43 10° SSW 10:39:49 25° SSE 10:53:37 10° ESE daylight
26 Nov - 12:37:36 10° SW 12:52:14 28° S 13:06:08 10° SE daylight
26 Nov - 14:52:01 10° WSW 15:04:12 21° SSW 15:14:58 10° S visible
27 Nov - 09:14:09 10° S 09:25:07 21° SSE 09:37:15 10° ESE daylight
27 Nov - 11:23:00 10° SW 11:37:06 28° S 11:51:37 10° SE daylight
27 Nov - 13:35:34 10° WSW 13:49:31 25° SSW 14:02:26 10° SSE daylight
27 Nov - 15:52:59 10° WSW 16:00:43 14° SW 16:07:48 10° SSW visible
28 Nov - 08:03:29 10° SSE 08:10:53 14° SE 08:19:06 10° ESE daylight
28 Nov - 10:09:20 10° SSW 10:22:05 26° SSE 10:36:11 10° ESE daylight
28 Nov - 12:20:12 10° SW 12:34:29 28° S 12:48:45 10° SE daylight
28 Nov - 14:34:38 10° WSW 14:46:28 20° SSW 14:57:24 10° S visible
29 Nov - 08:56:46 10° SSW 09:07:25 21° SSE 09:19:44 10° ESE daylight
29 Nov - 11:05:44 10° SW 11:19:22 28° S 11:34:06 10° SE daylight
29 Nov - 13:18:15 10° WSW 13:31:45 25° SSW 13:44:54 10° SSE daylight
29 Nov - 15:36:13 10° WSW 15:42:59 13° SW 15:49:24 10° SSW visible
